Weather in Ivanteyevo

Russia / Novgorod Oblast     57°47′38″N   33°08′45″E
temp.,
°C
wind,
m/s
gust,
m/s
humid.,
%
clouds,
%
prec.,
mm/h
press.,
hPa
HPBL,
m
28 september, tue
tue2800:00+6nne28967 0.0 1030212
03:00+6ne279499 0.0 1030240
06:00+5ne279827 0.0 1031213
09:00+7ene3887100 0.0 1032432
12:00+9e357197 0.1 10321032
15:00+10ese346095 0.1 10331232
18:00+8ese116831 0.0 103421
21:00+5ene118450 0.0 103510
29 september, wed
wed2900:00+3e11918 0.0 103610
03:00+3ese11925 0.0 103710
06:00+2s019393 0.0 103710
09:00+6ese117971 0.0 1037112
12:00+10ese016096 0.0 1037621
15:00+12ne005580 0.0 1036908
18:00+8nnw007356 0.0 103510
21:00+5e118747 0.0 103610
30 september, thu
thu3000:00+4sse119112 0.0 103610
03:00+4ssw11925 0.0 103610
06:00+3ssw11925 0.0 103610
09:00+7s11775 0.0 1036112
12:00+12sse125853 0.0 1035621
15:00+13s225254 0.0 1034937
18:00+9sse117211 0.0 103410
21:00+6s228112 0.0 103413
1 october, fri
fri100:00+5ssw22865 0.0 103534
03:00+4ssw228654 0.0 103541
06:00+4ssw228948 0.0 103536
09:00+7ssw257565 0.0 1034175
12:00+11ssw345472 0.0 1034662
15:00+13sw344843 0.0 1033962
18:00+9ssw226954 0.0 103212
21:00+6ssw237960 0.0 103337
2 october, sat
sat200:00+5ssw23855 0.0 103352
03:00+4ssw239041 0.0 103358
06:00+4s249417 0.0 103279
09:00+7s36816 0.0 1032194
12:00+12ssw35597 0.0 1031710
15:00+13ssw3554100 0.0 10301081
18:00+10s2474100 0.0 103094
21:00+8s2880100 0.0 1030196